Date String (YYYY-MM-DD hh:mm:ss) UTC,Instrument flags,absolute air pressure of the measurement (hPa),sample flow rate (lpm),inlet stack bypass flow (lpm),air temperature of the measurement (°C),ambient temperature measured by the external sensor (°C),aerosol sample conditioner tube jacket temperature (°C),OPC LED temperature (°C),internal box temperature (°C),relative humidity of the measurement (%),span deviation,mass concentration of particles derived from Lorenz-Mie calculation of OPC scattering (μg/m³),mass concentration of particles derived from Lorenz-Mie calculation of OPC scattering (μg/m³),mass concentration of particles derived from Lorenz-Mie calculation of OPC scattering (μg/m³)
DateTimeUTC,F1_M11,P_M11,Q1_M11,Q2_M11,T1_M11,T2_M11,T3_M11,T4_M11,T5_M11,U1_M11,ZSPAN_M11,X2_M11,X0_M11,X1_M11
2024-01-14 13:00:00,SystemResetWarning,0822.0,5.01,000.00,018.9,018.1,000.0,027.4,020.0,3.9,0003.8,0004.86,0007.98,0004.48
2024-01-14 13:01:00,SystemResetWarning,0822.0,4.99,000.00,018.9,017.9,000.0,027.4,020.0,3.9,0003.8,0004.86,0007.97,0004.48
2024-01-14 13:02:00,SystemResetWarning,0822.1,5.00,000.00,018.9,017.9,000.0,027.4,020.2,3.9,0003.8,0004.87,0007.98,0004.48
2024-01-14 13:03:00,SystemResetWarning,0822.2,5.02,000.00,019.0,018.5,000.0,027.4,020.7,3.9,0003.6,0004.86,0008.17,0004.46
2024-01-14 13:04:00,SystemResetWarning,0822.1,5.00,000.00,019.1,019.2,000.0,027.4,021.0,3.9,0003.1,0004.82,0008.10,0004.44
2024-01-14 13:05:00,SystemResetWarning,0822.1,4.99,000.00,019.2,019.3,000.0,027.4,020.8,3.9,0003.0,0004.82,0008.19,0004.42
2024-01-14 13:06:00,SystemResetWarning,0822.1,5.00,000.00,019.1,019.0,000.0,027.4,020.3,3.9,0003.1,0004.82,0008.54,0004.40
2024-01-14 13:07:00,SystemResetWarning,0822.2,5.01,000.00,019.0,018.6,000.0,027.4,020.0,3.9,0003.6,0004.81,0008.78,0004.39
2024-01-14 13:08:00,SystemResetWarning,0822.2,5.00,000.00,019.0,018.3,000.0,027.4,020.0,3.9,0003.9,0004.76,0008.71,0004.36
2024-01-14 13:09:00,SystemResetWarning,0822.1,4.99,000.00,018.9,018.0,000.0,027.4,020.0,3.9,0004.2,0004.73,0008.83,0004.33
2024-01-14 13:10:00,SystemResetWarning,0822.1,4.99,000.00,018.9,017.8,000.0,027.4,020.0,3.9,0003.7,0004.71,0009.05,0004.30
2024-01-14 13:11:00,SystemResetWarning,0822.1,5.01,000.00,018.9,017.8,000.0,027.4,020.2,3.9,0003.1,0004.65,0009.75,0004.27
2024-01-14 13:12:00,SystemResetWarning,0822.1,5.01,000.00,019.0,018.4,000.0,027.4,020.6,3.9,0002.4,0004.64,0009.89,0004.25
2024-01-14 13:13:00,SystemResetWarning,0822.1,5.00,000.00,019.1,019.1,000.0,027.4,021.0,3.9,0001.0,0004.59,0009.82,0004.21
2024-01-14 13:14:00,SystemResetWarning,0822.2,5.00,000.00,019.2,019.3,000.0,027.4,020.7,3.9,0000.0,0004.56,0009.73,0004.19
2024-01-14 13:15:00,SystemResetWarning,0822.3,4.99,000.00,019.1,019.0,000.0,027.4,020.3,3.9,0000.0,0004.59,0010.34,0004.19
2024-01-14 13:16:00,SystemResetWarning,0822.4,4.99,000.00,019.0,018.6,000.0,027.3,020.0,3.9,0000.0,0004.59,0010.37,0004.19
2024-01-14 13:17:00,SystemResetWarning,0822.3,5.02,000.00,019.0,018.4,000.0,027.4,020.0,3.9,0000.0,0004.60,0010.12,0004.20
2024-01-14 13:18:00,SystemResetWarning,0822.4,5.01,000.00,018.9,018.1,000.0,027.4,020.0,3.9,0000.0,0004.61,0009.91,0004.21
2024-01-14 13:19:00,SystemResetWarning,0822.4,4.99,000.00,018.9,017.9,000.0,027.4,020.0,3.9,0000.0,0004.66,0010.02,0004.22
2024-01-14 13:20:00,SystemResetWarning,0822.2,5.00,000.00,018.9,017.9,000.0,027.4,020.2,3.9,0000.0,0004.69,0009.91,0004.24
2024-01-14 13:21:00,SystemResetWarning,0822.2,5.00,000.00,019.0,018.4,000.0,027.4,020.6,3.9,0000.0,0004.70,0009.82,0004.25
2024-01-14 13:22:00,SystemResetWarning,0822.2,5.01,000.00,019.1,019.0,000.0,027.4,020.8,3.9,0000.0,0004.72,0009.14,0004.27
2024-01-14 13:23:00,SystemResetWarning,0822.2,4.99,000.00,019.1,019.0,000.0,027.4,020.5,3.9,0000.0,0004.72,0008.95,0004.29
2024-01-14 13:24:00,SystemResetWarning,0822.1,4.99,000.00,019.0,018.7,000.0,027.3,020.1,3.9,0001.7,0004.74,0008.99,0004.30
2024-01-14 13:25:00,SystemResetWarning,0822.1,4.99,000.00,019.0,018.4,000.0,027.3,020.0,3.9,0003.7,0004.75,0008.86,0004.31
2024-01-14 13:26:00,SystemResetWarning,0822.1,5.02,000.00,018.9,018.2,000.0,027.4,020.0,3.9,0002.2,0004.73,0008.23,0004.29
2024-01-14 13:27:00,SystemResetWarning,0822.1,5.01,000.00,018.9,018.0,000.0,027.4,020.0,3.9,0000.0,0004.69,0008.13,0004.26
2024-01-14 13:28:00,SystemResetWarning,0822.1,5.00,000.00,018.9,017.8,000.0,027.4,020.0,3.9,0000.0,0004.66,0007.98,0004.24
2024-01-14 13:29:00,SystemResetWarning,0822.1,5.00,000.00,018.9,018.0,000.0,027.4,020.3,3.9,0000.0,0004.63,0008.15,0004.21
2024-01-14 13:30:00,SystemResetWarning,0822.1,5.01,000.00,019.0,018.7,000.0,027.3,020.8,3.9,0000.0,0004.60,0008.17,0004.18
2024-01-14 13:31:00,SystemResetWarning,0822.2,5.00,000.00,019.2,019.3,000.0,027.4,021.0,3.9,0000.0,0004.56,0008.12,0004.15
2024-01-14 13:32:00,SystemResetWarning,0822.1,4.99,000.00,019.2,019.3,000.0,027.4,020.7,3.8,0000.0,0004.54,0007.87,0004.13
2024-01-14 13:33:00,SystemResetWarning,0822.1,4.99,000.00,019.1,019.0,000.0,027.3,020.3,3.9,0000.0,0004.54,0007.94,0004.13
2024-01-14 13:34:00,SystemResetWarning,0822.1,5.01,000.00,019.0,018.7,000.0,027.3,020.1,3.9,0000.0,0004.50,0007.90,0004.10
2024-01-14 13:35:00,SystemResetWarning,0822.1,5.01,000.00,019.0,018.4,000.0,027.3,020.0,3.9,0000.0,0004.47,0007.84,0004.08
2024-01-14 13:36:00,SystemResetWarning,0822.1,5.00,000.00,018.9,018.1,000.0,027.4,020.0,3.9,0000.0,0004.46,0007.84,0004.06
2024-01-14 13:37:00,SystemResetWarning,0822.2,5.00,000.00,018.9,017.9,000.0,027.4,020.0,3.9,0000.0,0004.45,0007.91,0004.05
2024-01-14 13:38:00,SystemResetWarning,0822.3,5.00,000.00,018.9,017.8,000.0,027.4,020.1,3.9,0000.0,0004.44,0008.02,0004.05
2024-01-14 13:39:00,SystemResetWarning,0822.4,5.01,000.00,019.0,018.3,000.0,027.4,020.5,3.9,0000.0,0004.44,0008.04,0004.05
2024-01-14 13:40:00,SystemResetWarning,0822.3,5.00,000.00,019.1,019.0,000.0,027.4,020.8,3.9,0000.0,0004.43,0007.88,0004.05
2024-01-14 13:41:00,SystemResetWarning,0822.2,4.99,000.00,019.1,019.0,000.0,027.3,020.5,3.9,0000.0,0004.40,0007.78,0004.05
2024-01-14 13:42:00,SystemResetWarning,0822.2,5.00,000.00,019.0,018.7,000.0,027.3,020.2,3.9,0000.0,0004.40,0007.81,0004.04
2024-01-14 13:43:00,SystemResetWarning,0822.3,5.01,000.00,019.0,018.5,000.0,027.3,020.0,3.9,0003.3,0004.41,0007.87,0004.03
2024-01-14 13:44:00,SystemResetWarning,0822.2,5.00,000.00,018.9,018.3,000.0,027.3,020.0,3.9,0000.9,0004.37,0007.57,0004.00
2024-01-14 13:45:00,SystemResetWarning,0822.2,5.00,000.00,018.9,018.1,000.0,027.4,020.0,3.9,0000.0,0004.32,0007.47,0003.98
2024-01-14 13:46:00,SystemResetWarning,0822.1,4.99,000.00,018.9,018.0,000.0,027.4,020.0,3.9,0000.0,0004.33,0007.51,0003.96
2024-01-14 13:47:00,SystemResetWarning,0822.1,5.00,000.00,018.9,018.1,000.0,027.4,020.3,3.9,0000.0,0004.32,0007.50,0003.94
2024-01-14 13:48:00,SystemResetWarning,0822.2,5.01,000.00,019.0,018.7,000.0,027.3,020.8,3.9,0000.0,0004.28,0007.41,0003.93
2024-01-14 13:49:00,SystemResetWarning,0822.3,5.01,000.00,019.2,019.4,000.0,027.3,021.0,3.9,0000.0,0004.26,0007.08,0003.92
2024-01-14 13:50:00,SystemResetWarning,0822.2,4.98,000.00,019.2,019.4,000.0,027.4,020.7,3.9,0000.0,0004.22,0007.05,0003.89
2024-01-14 13:51:00,SystemResetWarning,0822.2,5.00,000.00,019.2,019.1,000.0,027.3,020.4,3.9,0000.0,0004.22,0007.03,0003.87
2024-01-14 13:52:00,SystemResetWarning,0822.3,5.01,000.00,019.1,018.8,000.0,027.3,020.1,3.9,0000.0,0004.21,0006.95,0003.86
2024-01-14 13:53:00,SystemResetWarning,0822.3,5.01,000.00,019.0,018.6,000.0,027.3,020.0,3.9,0000.0,0004.19,0006.89,0003.84
2024-01-14 13:54:00,SystemResetWarning,0822.3,5.00,000.00,019.0,018.3,000.0,027.3,020.0,3.9,0000.0,0004.18,0006.93,0003.84
2024-01-14 13:55:00,SystemResetWarning,0822.3,5.00,000.00,018.9,018.1,000.0,027.4,020.0,3.9,0000.0,0004.17,0007.71,0003.83
2024-01-14 13:56:00,SystemResetWarning,0822.3,4.99,000.00,018.9,018.0,000.0,027.4,020.0,3.9,0000.0,0004.19,0007.83,0003.83
2024-01-14 13:57:00,SystemResetWarning,0822.2,5.00,000.00,018.9,018.0,000.0,027.4,020.2,3.9,0000.0,0004.19,0007.85,0003.83
2024-01-14 13:58:00,SystemResetWarning,0822.3,5.02,000.00,019.0,018.6,000.0,027.3,020.7,3.9,0000.0,0004.19,0007.86,0003.83
